Zurück zum Katalog

STARLINK-32746

AktivKommunikationVLEO
NORAD 62745·PAYLOAD·🇺🇸 United States

Gestartet Jan 21, 2025 von Cape Canaveral Space Force Station

Loading…

Nächste Überflüge (nächste 24 Stunden)

TLE

AktuellSource: CelesTrak SupGP

Epoche: Sep 15, 2026, 03:42 UTC

1 62745C 25014L   26258.15465278  .00033291  00000+0  12059-2 0  2581
2 62745  43.0022 163.9643 0001494 276.5788 260.5174 15.27559372    12

Verfolge STARLINK-32746 in Echtzeit mit AllMySat

Download on the App Store